{"data":{"norad_id":39202,"intl_designator":"2013-035A","name":"SJ-11-05","alt_names":[],"object_type":"PAYLOAD","status":"ACTIVE","operator":null,"country":"PRC","launch_date":"2013-07-15","launch_site_code":"JSC","launch_vehicle":null,"mission":null,"orbit_class":"UNKNOWN","rcs_meters":2.305,"size_class":null,"mass_kg":null,"dimensions":null,"purposes":[],"wikipedia_slug":null,"has_3d_model":false,"image_url":null,"decayed_at":null,"tle_current":{"epoch":"2026-05-25T04:10:01.937856Z","epoch_age_seconds":53194,"freshness":"FRESH","line1":"1 39202U 13035A   26145.17363354  .00000384  00000+0  81096-4 0  9990","line2":"2 39202  98.2865 329.8264 0009010 313.2430  46.8020 14.64860087685863","mean_motion":14.64860087,"eccentricity":0.000901,"inclination_deg":98.2865,"raan_deg":329.8264,"arg_perigee_deg":313.243,"mean_anomaly_deg":46.802,"bstar":8.1096e-5,"rev_number":68586,"period_min":98.302903654716,"perigee_km":671.16746194067,"apogee_km":683.88176416739,"semimajor_km":7055.661613054,"source":"CELESTRAK","updated_at":"2026-05-25T13:37:55.369135Z"}}}